Change the Weather History Date:

Wednesday, February 13, 2013

  Actual Average Record
Temperature  
Mean Temperature 34 °F -  
Max Temperature 44 °F 29 °F 51 °F (1997)
Min Temperature 24 °F 14 °F -2 °F (1997)
Degree Days  
Heating Degree Days 31    
Moisture  
Dew Point 30 °F    
Average Humidity 87    
Maximum Humidity 100    
Minimum Humidity 71    
Precipitation  
Precipitation 0.00 in - - ()
Sea Level Pressure  
Sea Level Pressure 29.71 in    
Wind  
Wind Speed 8 mph (WSW)    
Max Wind Speed 16 mph    
Max Gust Speed 25 mph    
Visibility 10 miles    
Events      
Averages and records for this station are not official NWS values.
T = Trace of Precipitation, MM = Missing Value Source: NWS Daily Summary

Daily Weather History Graph

Daily Weather History Graph

Search for Another Location

Airport or City:

Trip Planner

Search our weather history database for the weather conditions in past years. The results will help you decide how hot, cold, wet, or windy it might be!

Date:

Astronomy

Feb. 13, 2013 Rise Set
Actual Time 7:17 AM CST 5:46 PM CST
Civil Twilight 6:47 AM CST 6:15 PM CST
Nautical Twilight 6:14 AM CST 6:48 PM CST
Astronomical Twilight 5:41 AM CST 7:21 PM CST
Moon 8:39 AM CST (2/13) 9:57 PM CST (2/13)
Length of Visible Light 11h 27m
Length of Day
10h 28m
Waxing Crescent, 14% of the Moon is Illuminated
Feb 13
Waxing Crescent
Feb 17
First Quarter
Feb 25
Full
Mar 4
Last Quarter
Mar 11
New

Hourly Weather History & Observations

Time (CST) Temp. Windchill Dew Point Humidity Pressure Visibility Wind Dir Wind Speed Gust Speed Precip Events Conditions
12:15 AM 28.4 °F 22.2 °F 26.6 °F 93% 29.84 in 10.0 mi West 5.8 mph - N/A   Clear
12:35 AM 28.4 °F 22.2 °F 26.6 °F 93% 29.83 in 10.0 mi West 5.8 mph - N/A   Clear
12:55 AM 28.4 °F 21.2 °F 26.6 °F 93% 29.83 in 10.0 mi WNW 6.9 mph - N/A   Clear
1:15 AM 28.4 °F 23.3 °F 26.6 °F 93% 29.82 in 10.0 mi WSW 4.6 mph - N/A   Clear
1:35 AM 26.6 °F 20.0 °F 26.6 °F 100% 29.82 in 10.0 mi West 5.8 mph - N/A   Partly Cloudy
1:55 AM 26.6 °F 19.1 °F 24.8 °F 93% 29.81 in 10.0 mi West 6.9 mph - N/A   Partly Cloudy
2:15 AM 26.6 °F 19.1 °F 24.8 °F 93% 29.81 in 10.0 mi West 6.9 mph - N/A   Clear
2:35 AM 26.6 °F 20.0 °F 24.8 °F 93% 29.81 in 10.0 mi West 5.8 mph - N/A   Clear
2:55 AM 26.6 °F 20.0 °F 24.8 °F 93% 29.80 in 10.0 mi West 5.8 mph - N/A   Clear
3:15 AM 26.6 °F 20.0 °F 24.8 °F 93% 29.80 in 10.0 mi WSW 5.8 mph - N/A   Clear
3:35 AM 26.6 °F 21.2 °F 24.8 °F 93% 29.79 in - WSW 4.6 mph - N/A   Unknown
3:55 AM 24.8 °F 17.9 °F 24.8 °F 100% 29.79 in 10.0 mi WSW 5.8 mph - N/A   Clear
4:15 AM 24.8 °F 17.9 °F 24.8 °F 100% 29.79 in 10.0 mi West 5.8 mph - N/A   Clear
4:35 AM 24.8 °F 16.9 °F 23.0 °F 93% 29.79 in 10.0 mi West 6.9 mph - N/A   Scattered Clouds
4:55 AM 24.8 °F 20.5 °F 23.0 °F 93% 29.78 in 10.0 mi SW 3.5 mph - N/A   Partly Cloudy
5:15 AM 24.8 °F 19.1 °F 23.0 °F 93% 29.79 in 10.0 mi SW 4.6 mph - N/A   Clear
5:35 AM 24.8 °F 16.9 °F 23.0 °F 93% 29.78 in 10.0 mi SW 6.9 mph - N/A   Partly Cloudy
6:15 AM 24.8 °F 20.5 °F 23.0 °F 93% 29.76 in 10.0 mi SSW 3.5 mph - N/A   Overcast
6:35 AM 24.8 °F 17.9 °F 24.8 °F 100% 29.77 in 10.0 mi SW 5.8 mph - N/A   Overcast
6:55 AM 24.8 °F 17.9 °F 24.8 °F 100% 29.76 in 10.0 mi SW 5.8 mph - N/A   Overcast
7:15 AM 24.8 °F 17.9 °F 24.8 °F 100% 29.77 in 10.0 mi West 5.8 mph - N/A   Overcast
7:35 AM 24.8 °F 16.9 °F 24.8 °F 100% 29.77 in 10.0 mi WSW 6.9 mph - N/A   Overcast
7:55 AM 26.6 °F 18.2 °F 24.8 °F 93% 29.78 in 10.0 mi West 8.1 mph - N/A   Overcast
8:15 AM 26.6 °F 20.0 °F 24.8 °F 93% 29.77 in 10.0 mi WSW 5.8 mph - N/A   Mostly Cloudy
8:35 AM 26.6 °F 17.5 °F 26.6 °F 100% 29.77 in 10.0 mi SW 9.2 mph - N/A   Overcast
8:55 AM 28.4 °F 19.7 °F 26.6 °F 93% 29.77 in 10.0 mi WSW 9.2 mph - N/A   Overcast
9:15 AM 28.4 °F 19.1 °F 26.6 °F 93% 29.77 in 10.0 mi WSW 10.4 mph - N/A   Overcast
9:35 AM 30.2 °F 20.8 °F 28.4 °F 93% 29.76 in 10.0 mi WSW 11.5 mph - N/A   Overcast
9:55 AM 30.2 °F 20.2 °F 28.4 °F 93% 29.76 in 10.0 mi WSW 12.7 mph - N/A   Partly Cloudy
10:15 AM 32.0 °F 22.1 °F 30.2 °F 93% 29.76 in 10.0 mi WSW 13.8 mph - N/A   Clear
10:35 AM 32.0 °F 21.6 °F 30.2 °F 93% 29.75 in 10.0 mi WSW 15.0 mph - N/A   Clear
10:55 AM 33.8 °F 24.8 °F 30.2 °F 87% 29.75 in 10.0 mi WSW 12.7 mph - N/A   Clear
11:15 AM 33.8 °F 25.8 °F 32.0 °F 93% 29.74 in 10.0 mi SW 10.4 mph - N/A   Clear
11:35 AM 35.6 °F 27.5 °F 32.0 °F 87% 29.74 in 10.0 mi SW 11.5 mph - N/A   Clear
11:55 AM 37.4 °F 30.8 °F 32.0 °F 81% 29.74 in 10.0 mi SW 9.2 mph - N/A   Clear
12:15 PM 39.2 °F 32.0 °F 33.8 °F 81% 29.73 in 10.0 mi SW 11.5 mph - N/A   Clear
12:35 PM 39.2 °F 31.2 °F 33.8 °F 81% 29.72 in 10.0 mi WSW 13.8 mph - N/A   Clear
12:55 PM 41.0 °F 33.5 °F 33.8 °F 76% 29.71 in 10.0 mi WSW 13.8 mph - N/A   Clear
1:15 PM 41.0 °F 33.9 °F 35.6 °F 81% 29.70 in 10.0 mi SW 12.7 mph - N/A   Clear
1:35 PM 42.8 °F 35.8 °F 35.6 °F 76% 29.69 in 10.0 mi SW 13.8 mph - N/A   Clear
1:55 PM 42.8 °F 35.4 °F 35.6 °F 76% 29.69 in 10.0 mi WSW 15.0 mph 20.7 mph N/A   Clear
2:15 PM 42.8 °F 36.6 °F 35.6 °F 76% 29.68 in 10.0 mi SW 11.5 mph - N/A   Clear
2:35 PM 44.6 °F 37.8 °F 35.6 °F 71% 29.67 in 10.0 mi SW 15.0 mph - N/A   Clear
2:55 PM 44.6 °F 37.8 °F 35.6 °F 71% 29.66 in 10.0 mi SW 15.0 mph - N/A   Partly Cloudy
3:15 PM 44.6 °F 37.4 °F 35.6 °F 71% 29.66 in 10.0 mi SW 16.1 mph - N/A   Partly Cloudy
3:35 PM 44.6 °F 38.1 °F 35.6 °F 71% 29.65 in 10.0 mi SW 13.8 mph - N/A   Mostly Cloudy
3:55 PM 42.8 °F 36.6 °F 35.6 °F 76% 29.65 in 10.0 mi SW 11.5 mph - N/A   Overcast
4:15 PM 42.8 °F 36.6 °F 35.6 °F 76% 29.65 in 10.0 mi SW 11.5 mph - N/A   Mostly Cloudy
4:35 PM 42.8 °F 37.0 °F 35.6 °F 76% 29.65 in 10.0 mi SW 10.4 mph - N/A   Mostly Cloudy
4:55 PM 41.0 °F 36.4 °F 35.6 °F 81% 29.64 in 10.0 mi SSW 6.9 mph - N/A   Overcast
5:15 PM 41.0 °F 36.4 °F 35.6 °F 81% 29.63 in 10.0 mi SSW 6.9 mph - N/A   Overcast
5:35 PM 41.0 °F 36.4 °F 35.6 °F 81% 29.63 in 10.0 mi SSW 6.9 mph - N/A   Overcast
5:55 PM 39.2 °F 34.2 °F 35.6 °F 87% 29.63 in 10.0 mi SSW 6.9 mph - N/A   Overcast
6:15 PM 39.2 °F 33.0 °F 35.6 °F 87% 29.63 in 10.0 mi SSW 9.2 mph - N/A   Overcast
6:35 PM 41.0 °F 34.3 °F 35.6 °F 81% 29.63 in 10.0 mi SW 11.5 mph - N/A   Overcast
6:55 PM 39.2 °F 33.0 °F 33.8 °F 81% 29.62 in 10.0 mi WSW 9.2 mph - N/A   Light Drizzle
7:15 PM 39.2 °F 33.6 °F 33.8 °F 81% 29.62 in 10.0 mi WSW 8.1 mph - N/A   Overcast
7:35 PM 37.4 °F 30.8 °F 33.8 °F 87% 29.62 in 10.0 mi WSW 9.2 mph - N/A   Overcast
7:55 PM 39.2 °F 31.6 °F 33.8 °F 81% 29.61 in 10.0 mi WSW 12.7 mph - N/A   Overcast
8:15 PM 39.2 °F 31.6 °F 33.8 °F 81% 29.61 in 10.0 mi West 12.7 mph - N/A   Overcast
8:35 PM 37.4 °F 29.8 °F 33.8 °F 87% 29.61 in 10.0 mi West 11.5 mph - N/A   Overcast
8:55 PM 37.4 °F 28.9 °F 32.0 °F 81% 29.61 in 10.0 mi WSW 13.8 mph - N/A   Mostly Cloudy
9:15 PM 37.4 °F 28.9 °F 32.0 °F 81% 29.61 in 10.0 mi West 13.8 mph - N/A   Scattered Clouds
9:35 PM 35.6 °F 26.2 °F 32.0 °F 87% 29.61 in 10.0 mi West 15.0 mph - N/A   Partly Cloudy
9:55 PM 37.4 °F 28.5 °F 32.0 °F 81% 29.62 in 10.0 mi West 15.0 mph - N/A   Partly Cloudy
10:15 PM 35.6 °F 26.6 °F 32.0 °F 87% 29.62 in 10.0 mi WNW 13.8 mph - N/A   Clear
10:35 PM 35.6 °F 26.6 °F 32.0 °F 87% 29.63 in 10.0 mi West 13.8 mph - N/A   Clear
10:55 PM 35.6 °F 27.5 °F 33.8 °F 93% 29.63 in 10.0 mi West 11.5 mph - N/A   Scattered Clouds
11:15 PM 35.6 °F 27.1 °F 33.8 °F 93% 29.63 in 10.0 mi West 12.7 mph - N/A   Overcast
11:35 PM 35.6 °F 26.6 °F 33.8 °F 93% 29.63 in 10.0 mi West 13.8 mph - N/A   Overcast
11:55 PM 37.4 °F 28.2 °F 32.0 °F 81% 29.63 in 10.0 mi WNW 16.1 mph 25.3 mph N/A   Overcast